Regional Weather Roundup
Issued by NWS

Home | Current Version | Previous Version | Graphics & Text | Print | Product List | Glossary On
Versions: 1 2 3 4 5 6 7 8 9 10 11 12 13 14 15 16 17 18 19 20 21 22 23 24 25 26 27 28 29 30 31 32 33 34 35 36 37 38 39 40 41 42 43 44 45 46 47 48 49 50
448
ASUS45 KABQ 171010
RWRNM
NEW MEXICO REGIONAL WEATHER ROUNDUP
NATIONAL WEATHER SERVICE ALBUQUERQUE NM
300 AM MST FRI NOV 17 2017

NOTE: "FAIR" MEANS FEW OR NO CLOUDS BELOW 12,000 FEET AGL WITH NO
       SIGNIFICANT WEATHER OR OBSTRUCTIONS TO VISION.

      THIS PRODUCT IS RELEASED AS TWO VERSIONS.  ONE VERSION NEAR
      THE TOP OF THE HOUR CONTAINING PRELIMINARY DATA FROM ALBUQUERQUE
      AND OTHER STATIONS.  A FINAL VERSION WITH ADDITIONAL DATA IS
      ISSUED ABOUT 10 MINUTES AFTER THE HOUR.

NMZ501-503-504-510>518-171100-
NORTHWEST PLATEAU/NORTHCENTRAL MOUNTAINS

CITY           SKY/WX    TMP DP  RH WIND       PRES   REMARKS
FARMINGTON     FAIR      50  25  37 N5        30.00S
LOS ALAMOS     FAIR      52  23  32 S12       30.11S
SANTA FE       FAIR      52  26  36 CALM      30.09S
ANGEL FIRE     MOCLDY    41  28  60 SW3       30.12F

$$
NMZ402-403-502-505>509-171100-
WESTCENTRAL MOUNTAINS/SOUTHWEST MOUNTAINS

CITY           SKY/WX    TMP DP  RH WIND       PRES   REMARKS
GALLUP         CLOUDY    50  23  34 SW5       30.14R
GRANTS         FAIR      43  20  40 SE7       30.14S
SILVER CITY    FAIR      48  20  32 NW8       30.15S

$$
NMZ407-409-411-412-171100-
SOUTHERN DESERTS

CITY           SKY/WX    TMP DP  RH WIND       PRES   REMARKS
DEMING         FAIR      42  21  43 CALM      30.10S
LAS CRUCES     FAIR      52  23  32 W8        30.09S
HOLLOMAN AFB   FAIR      53  27  37 SE12      30.08S
ALAMOGORDO     FAIR      55  27  33 S10       30.07S
T OR C         FAIR      53  21  28 W8        30.09R

$$
NMZ519>523-171100-
CENTRAL VALLEYS/CENTRAL HIGHLANDS

CITY           SKY/WX    TMP DP  RH WIND       PRES   REMARKS
ALBUQUERQUE    MOCLDY    52  24  33 SE8       30.08S
MORIARTY ARPT  FAIR      62  21  21 W23G32    30.11S
CLINES CORNERS FAIR      53  19  26 W24       30.11F
BELEN          FAIR      49  19  30 SW9       30.08S
SOCORRO        FAIR      47  22  36 CALM      30.07F

$$
NMZ524>526-539-540-171100-
SOUTHCENTRAL MOUNTAINS

CITY           SKY/WX    TMP DP  RH WIND       PRES   REMARKS
RUIDOSO        FAIR      61  16  17 W17G26    30.14S

$$
NMZ527>531-171100-
NORTHEAST HIGHLANDS/NORTHEAST PLAINS

CITY           SKY/WX    TMP DP  RH WIND       PRES   REMARKS
LAS VEGAS      FAIR      57  20  23 W22G35    30.00F
RATON          FAIR      58  28  32 W15G29    29.90F
CLAYTON        FAIR      46  27  47 W9        29.86F

$$
NMZ532>537-171100-
EASTCENTRAL PLAINS

CITY           SKY/WX    TMP DP  RH WIND       PRES   REMARKS
SANTA ROSA     FAIR      47  27  44 S9        29.95F
TUCUMCARI      FAIR      55  30  38 SW13      29.87F
CANNON AFB     FAIR      50  48  92 W12       29.97S
CLOVIS AIRPORT FAIR      51  41  68 W13       29.96S

$$
NMZ028-029-538-171100-
SOUTHEAST PLAINS

CITY           SKY/WX    TMP DP  RH WIND       PRES   REMARKS
ROSWELL        FAIR      44  42  93 CALM      29.98R
ARTESIA        FAIR      48  48 100 SW5       29.99S
CARLSBAD       FAIR      44  44 100 NW6       29.97R
HOBBS          FAIR      48  45  87 SW6       29.98F


$$




USA.gov is the U.S. government's official web portal to all federal, state and local government web resources and services.